Regional Weather Roundup
Issued by NWS

Home | Current Version | Previous Version | Graphics & Text | Print | Product List | Glossary On
Versions: 1 2 3 4 5 6 7 8 9 10 11 12 13 14 15 16 17 18 19 20 21 22 23 24 25 26 27 28 29 30 31 32 33 34 35 36 37 38 39 40 41 42 43 44 45 46 47 48 49 50
000
ASUS44 KMEG 282300
RWRTN
TENNESSEE HOURLY STATE WEATHER ROUNDUP
NATIONAL WEATHER SERVICE MEMPHIS TN
600 PM CDT THU MAY 28 2015

TNZ002-004-019-021-049-052-054-088>092-290000-
WEST TENNESSEE

CITY           SKY/WX    TMP DP  RH WIND       PRES   REMARKS
MEMPHIS INTL   MOSUNNY   82  64  54 S3        30.08F
NWS MEMPHIS      N/A     84 N/A N/A MISG        N/A
JACKSON        MOSUNNY   80  66  62 S6        30.10F
DYERSBURG      MOSUNNY   81  55  41 SE3       30.09F
PARIS          SUNNY     81  66  61 SW5       30.10F
LEXINGTON      SUNNY     81  66  61 SW5       30.09F
$$

TNZ008-025-027-028-033-062-065-066-290000-
NORTH MIDDLE TENNESSEE

CITY           SKY/WX    TMP DP  RH WIND       PRES   REMARKS
NASHVILLE      PTSUNNY   81  65  58 E5        30.11F
CLARKSVILLE    SUNNY     82  66  58 SE5       30.10S
COOKEVILLE     PTSUNNY   81  66  61 E3        30.14S
CROSSVILLE     PTSUNNY   76  64  66 E6        30.19F
$$

TNZ061-075-076-078-094-096-097-290000-
SOUTH MIDDLE TENNESSEE

CITY           SKY/WX    TMP DP  RH WIND       PRES   REMARKS
FAYETTEVILLE   MOSUNNY  N/A N/A N/A MISG      30.12F
TULLAHOMA      MOSUNNY   79  64  61 SE6       30.14F
WINCHESTER     SUNNY     79  66  65 SE6       30.13F
MCMINNVILLE    MOSUNNY   82  66  57 SE6       30.13F
COLUMBIA       SUNNY     82  66  57 SW3       30.10S
SHELBYVILLE    SUNNY     81  70  69 CALM      30.13S
$$

TNZ017-018-042-046-047-290000-
NORTHEAST TENNESSEE

CITY           SKY/WX    TMP DP  RH WIND       PRES   REMARKS
TRI CITIES     LGT RAIN  69  66  90 S6        30.21S
ELIZABETHTON   MOCLDY    64  64 100 CALM      30.22F
$$

TNZ012-013-036-069-073-074-290000-
CENTRAL EAST TENNESSEE

CITY           SKY/WX    TMP DP  RH WIND       PRES   REMARKS
KNOXVILLE      CLOUDY    80  64  58 E5        30.15S
OAK RIDGE      CLOUDY    81  63  54 CALM      30.17S
GATLINBURG       N/A     77  66  69 CALM      30.16S
$$

TNZ083-085-099-290000-
SOUTHEAST TENNESSEE

CITY           SKY/WX    TMP DP  RH WIND       PRES   REMARKS
CHATTANOOGA    TSTM      73  63  70 SE20G26   30.15R
$$

SKY/WX REPORTED AS FAIR MEANS FEW OR NO CLOUDS BELOW
12 THOUSAND FEET.




USA.gov is the U.S. government's official web portal to all federal, state and local government web resources and services.